H1 CPF 2 NER 2021 5 14 9 134 01 glonass141 H2 1908801 9141 44850 2021 5 14 0 0 0 2021 5 17 23 45 0 900 1 1 0 0 0 1 H9 10 0 59348 0.00000 0 10825705.591 -809451.581 23115247.511 10 0 59348 900.00000 0 11220932.680 1991679.531 22853000.819 10 0 59348 1800.00000 0 11808959.929 4698157.886 22148452.362 10 0 59348 2700.00000 0 12564206.059 7245500.730 21015171.355 10 0 59348 3600.00000 0 13450492.618 9575657.997 19475001.655 10 0 59348 4500.00000 0 14422573.695 11639172.963 17557651.567 10 0 59348 5400.00000 0 15428063.854 13396990.456 15300134.043 10 0 59348 6300.00000 0 16409685.122 14821838.403 12746066.535 10 0 59348 7200.00000 0 17307740.141 15899125.674 9944842.482 10 0 59348 8100.00000 0 18062708.716 16627318.918 6950688.891 10 0 59348 9000.00000 0 18617859.263 17017782.408 3821626.865 10 0 59348 9900.00000 0 18921765.286 17094087.068 618354.300 10 0 59348 10800.00000 0 18930620.370 16890817.165 -2596928.270 10 0 59348 11700.00000 0 18610252.936 16451924.342 -5761726.061 10 0 59348 12600.00000 0 17937754.154 15828697.951 -8814468.898 10 0 59348 13500.00000 0 16902648.304 15077437.282 -11695716.247 10 0 59348 14400.00000 0 15507553.942 14256924.188 -14349324.152 10 0 59348 15300.00000 0 13768305.719 13425803.493 -16723550.216 10 0 59348 16200.00000 0 11713529.487 12639982.727 -18772074.013 10 0 59348 17100.00000 0 9383686.576 11950162.185 -20454912.030 10 0 59348 18000.00000 0 6829625.832 11399600.842 -21739208.200 10 0 59348 18900.00000 0 4110702.934 11022213.679 -22599883.926 10 0 59348 19800.00000 0 1292544.943 10841081.814 -23020134.234 10 0 59348 20700.00000 0 -1555446.679 10867439.188 -22991759.961 10 0 59348 21600.00000 0 -4362750.424 11100179.102 -22515329.298 10 0 59348 22500.00000 0 -7060425.500 11525901.683 -21600165.427 10 0 59348 23400.00000 0 -9583746.097 12119500.137 -20264160.631 10 0 59348 24300.00000 0 -11874659.178 12845260.612 -18533420.744 10 0 59348 25200.00000 0 -13883963.367 13658428.550 -16441747.270 10 0 59348 26100.00000 0 -15573118.352 14507174.411 -14029967.837 10 0 59348 27000.00000 0 -16915610.066 15334874.700 -11345128.769 10 0 59348 27900.00000 0 -17897815.874 16082610.814 -8439566.295 10 0 59348 28800.00000 0 -18519335.184 16691779.044 -5369875.550 10 0 59348 29700.00000 0 -18792773.762 17106700.566 -2195798.416 10 0 59348 30600.00000 0 -18742993.138 17277120.480 1020947.158 10 0 59348 31500.00000 0 -18405859.031 17160489.980 4217872.580 10 0 59348 32400.00000 0 -17826543.783 16723935.316 7332934.690 10 0 59348 33300.00000 0 -17057456.285 15945830.735 10305738.451 10 0 59348 34200.00000 0 -16155888.081 14816909.655 13078702.782 10 0 59348 35100.00000 0 -15181475.796 13340867.918 15598167.315 10 0 59348 36000.00000 0 -14193587.012 11534434.314 17815419.405 10 0 59348 36900.00000 0 -13248739.286 9426905.841 19687622.588 10 0 59348 37800.00000 0 -12398159.992 7059167.170 21178629.944 10 0 59348 38700.00000 0 -11685588.193 4482234.830 22259668.225 10 0 59348 39600.00000 0 -11145409.376 1755385.979 22909881.008 10 0 59348 40500.00000 0 -10801199.734 -1056051.747 23116721.814 10 0 59348 41400.00000 0 -10664739.758 -3883159.333 22876190.661 10 0 59348 42300.00000 0 -10735537.508 -6656034.320 22192910.137 10 0 59348 43200.00000 0 -11000881.100 -9306441.685 21080039.704 10 0 59348 44100.00000 0 -11436418.299 -11770399.934 19559029.492 10 0 59348 45000.00000 0 -12007239.517 -13990597.046 17659217.552 10 0 59348 45900.00000 0 -12669419.830 -15918537.626 15417277.102 10 0 59348 46800.00000 0 -13371956.529 -17516333.232 12876522.914 10 0 59348 47700.00000 0 -14059022.150 -18758061.972 10086088.724 10 0 59348 48600.00000 0 -14672439.383 -19630640.900 7099989.967 10 0 59348 49500.00000 0 -15154274.506 -20134174.524 3976088.599 10 0 59348 50400.00000 0 -15449440.385 -20281764.262 774979.098 10 0 59348 51300.00000 0 -15508199.031 -20098786.152 -2441183.428 10 0 59348 52200.00000 0 -15288457.198 -19621666.415 -5609890.519 10 0 59348 53100.00000 0 -14757756.748 -18896205.795 -8669499.245 10 0 59348 54000.00000 0 -13894873.807 -17975522.885 -11560438.467 10 0 59348 54900.00000 0 -12690956.999 -16917703.136 -14226378.146 10 0 59348 55800.00000 0 -11150154.364 -15783252.983 -16615337.816 10 0 59348 56700.00000 0 -9289700.170 -14632467.143 -18680711.561 10 0 59348 57600.00000 0 -7139455.668 -13522820.996 -20382188.455 10 0 59348 58500.00000 0 -4740921.252 -12506499.074 -21686549.499 10 0 59348 59400.00000 0 -2145759.876 -11628164.903 -22568324.747 10 0 59348 60300.00000 0 586107.536 -10923067.137 -23010297.191 10 0 59348 61200.00000 0 3388755.610 -10415562.576 -23003843.102 10 0 59348 62100.00000 0 6192763.119 -10118118.718 -22549102.014 10 0 59348 63000.00000 0 8927871.954 -10030837.975 -21654972.894 10 0 59348 63900.00000 0 11525685.242 -10141523.368 -20338936.700 10 0 59348 64800.00000 0 13922291.847 -10426282.263 -18626709.029 10 0 59348 65700.00000 0 16060707.655 -10850641.750 -16551729.967 10 0 59348 66600.00000 0 17893031.735 -11371127.401 -14154501.708 10 0 59348 67500.00000 0 19382227.792 -11937237.368 -11481787.519 10 0 59348 68400.00000 0 20503457.279 -12493726.965 -8585688.490 10 0 59348 69300.00000 0 21244909.596 -12983105.838 -5522617.078 10 0 59348 70200.00000 0 21608096.324 -13348240.844 -2352188.422 10 0 59348 71100.00000 0 21607599.175 -13534953.639 863947.997 10 0 59348 72000.00000 0 21270284.437 -13494502.448 4063312.641 10 0 59348 72900.00000 0 20634019.176 -13185842.845 7183812.022 10 0 59348 73800.00000 0 19745945.255 -12577572.038 10164942.630 10 0 59348 74700.00000 0 18660385.467 -11649474.991 12948959.126 10 0 59348 75600.00000 0 17436471.076 -10393607.663 15481984.526 10 0 59348 76500.00000 0 16135591.091 -8814872.316 17715041.629 10 0 59348 77400.00000 0 14818770.418 -6931061.137 19604986.742 10 0 59348 78300.00000 0 13544086.328 -4772366.463 21115329.070 10 0 59348 79200.00000 0 12364230.403 -2380377.781 22216921.478 10 0 59348 80100.00000 0 11324316.670 193393.303 22888510.775 10 0 59348 81000.00000 0 10460026.009 2889399.931 23117138.328 10 0 59348 81900.00000 0 9796162.828 5642281.910 22898384.359 10 0 59348 82800.00000 0 9345683.044 8383332.284 22236451.874 10 0 59348 83700.00000 0 9109232.974 11043108.441 21144088.824 10 0 59348 84600.00000 0 9075217.926 13554081.650 19642349.631 10 0 59348 85500.00000 0 9220397.602 15853217.050 17760199.916 10 0 59349 0.00000 0 9510983.826 17884378.799 15533970.889 10 0 59349 900.00000 0 9904195.428 19600461.590 13006672.100 10 0 59349 1800.00000 0 10350205.848 20965161.078 10227175.122 10 0 59349 2700.00000 0 10794402.804 21954308.563 7249281.239 10 0 59349 3600.00000 0 11179865.536 22556715.488 4130690.657 10 0 59349 4500.00000 0 11449955.776 22774490.536 931891.849 10 0 59349 5400.00000 0 11550913.053 22622815.852 -2285008.031 10 0 59349 6300.00000 0 11434344.171 22129190.614 -5457489.240 10 0 59349 7200.00000 0 11059500.544 21332172.906 -8523838.315 10 0 59349 8100.00000 0 10395245.479 20279672.145 -11424355.484 10 0 59349 9000.00000 0 9421626.243 19026863.548 -14102526.337 10 0 59349 9900.00000 0 8130982.189 17633812.471 -16506133.776 10 0 59349 10800.00000 0 6528539.777 16162908.986 -18588287.557 10 0 59349 11700.00000 0 4632466.998 14676221.352 -20308350.284 10 0 59349 12600.00000 0 2473382.790 13232880.647 -21632740.749 10 0 59349 13500.00000 0 93340.182 11886607.546 -22535598.202 10 0 59349 14400.00000 0 -2455675.615 10683486.132 -22999293.939 10 0 59349 15300.00000 0 -5113672.236 9660079.112 -23014779.788 10 0 59349 16200.00000 0 -7814918.311 8841964.090 -22581766.466 10 0 59349 17100.00000 0 -10490460.223 8242752.493 -21708728.246 10 0 59349 18000.00000 0 -13070782.138 7863632.117 -20412733.920 10 0 59349 18900.00000 0 -15488498.069 7693451.773 -18719107.620 10 0 59349 19800.00000 0 -17680963.324 7709343.347 -16660926.452 10 0 59349 20700.00000 0 -19592696.006 7877853.658 -14278365.316 10 0 59349 21600.00000 0 -21177507.532 8156536.713 -11617902.357 10 0 59349 22500.00000 0 -22400253.460 8495937.398 -8731401.320 10 0 59349 23400.00000 0 -23238132.125 8841881.078 -5675089.711 10 0 59349 24300.00000 0 -23681477.923 9137970.700 -2508453.629 10 0 59349 25200.00000 0 -23734017.598 9328184.446 706928.224 10 0 59349 26100.00000 0 -23412580.644 9359463.035 3908587.665 10 0 59349 27000.00000 0 -22746278.029 9184176.612 7034383.193 10 0 59349 27900.00000 0 -21775185.747 8762366.689 10023705.135 10 0 59349 28800.00000 0 -20548590.267 8063668.558 12818646.192 10 0 59349 29700.00000 0 -19122870.979 7068833.429 15365115.017 10 0 59349 30600.00000 0 -17559109.352 5770786.631 17613872.005 10 0 59349 31500.00000 0 -15920525.380 4175177.848 19521468.219 10 0 59349 32400.00000 0 -14269848.330 2300400.534 21051070.739 10 0 59349 33300.00000 0 -12666730.918 177079.565 22173160.005 10 0 59349 34200.00000 0 -11165313.658 -2152951.913 22866087.185 10 0 59349 35100.00000 0 -9812039.458 -4638144.811 23116482.263 10 0 59349 36000.00000 0 -8643807.889 -7219134.942 22919506.056 10 0 59349 36900.00000 0 -7686544.523 -9830975.120 22278942.005 10 0 59349 37800.00000 0 -6954243.578 -12405607.914 21207126.187 10 0 59349 38700.00000 0 -6448522.821 -14874478.606 19724716.587 10 0 59349 39600.00000 0 -6158708.798 -17171181.876 17860305.303 10 0 59349 40500.00000 0 -6062448.708 -19234034.133 15649879.997 10 0 59349 41400.00000 0 -6126823.662 -21008465.994 13136143.470 10 0 59349 42300.00000 0 -6309917.273 -22449136.151 10367702.997 10 0 59349 43200.00000 0 -6562774.453 -23521678.913 7398143.469 10 0 59349 44100.00000 0 -6831668.736 -24204012.251 4285000.911 10 0 59349 45000.00000 0 -7060583.094 -24487150.965 1088655.215 10 0 59349 45900.00000 0 -7193799.740 -24375489.953 -2128837.112 10 0 59349 46800.00000 0 -7178489.146 -23886544.526 -5304947.841 10 0 59349 47700.00000 0 -6967188.039 -23050157.486 -8377895.838 10 0 59349 48600.00000 0 -6520060.189 -21907205.291 -11287855.632 10 0 59349 49500.00000 0 -5806842.574 -20507856.926 -13978131.361 10 0 59349 50400.00000 0 -4808392.546 -18909458.336 -16396272.155 10 0 59349 51300.00000 0 -3517768.289 -17174131.374 -18495106.140 10 0 59349 52200.00000 0 -1940794.575 -15366188.503 -20233671.881 10 0 59349 53100.00000 0 -96087.768 -13549472.572 -21578028.034 10 0 59349 54000.00000 0 1985463.033 -11784734.110 -22501924.659 10 0 59349 54900.00000 0 4261738.626 -10127157.080 -22987322.477 10 0 59349 55800.00000 0 6680913.562 -8624137.594 -23024749.470 10 0 59349 56700.00000 0 9183398.239 -7313409.260 -22613487.625 10 0 59349 57600.00000 0 11704118.387 -6221593.875 -21761586.115 10 0 59349 58500.00000 0 14175036.581 -5363238.055 -20485700.705 10 0 59349 59400.00000 0 16527810.200 -4740375.458 -18810762.768 10 0 59349 60300.00000 0 18696474.405 -4342631.847 -16769484.704 10 0 59349 61200.00000 0 20620037.541 -4147867.048 -14401711.952 10 0 59349 62100.00000 0 22244880.222 -4123324.927 -11753634.936 10 0 59349 63000.00000 0 23526857.753 -4227240.881 -8876877.042 10 0 59349 63900.00000 0 24433018.139 -4410837.005 -5827477.443 10 0 59349 64800.00000 0 24942864.507 -4620618.649 -2664789.541 10 0 59349 65700.00000 0 25049110.145 -4800873.582 549682.553 10 0 59349 66600.00000 0 24757895.939 -4896266.659 3753485.845 10 0 59349 67500.00000 0 24088462.846 -4854419.266 6884434.521 10 0 59349 68400.00000 0 23072294.940 -4628363.884 9881816.184 10 0 59349 69300.00000 0 21751770.701 -4178769.926 12687564.636 10 0 59349 70200.00000 0 20178380.600 -3475847.077 15247376.786 10 0 59349 71100.00000 0 18410586.668 -2500846.283 17511752.741 10 0 59349 72000.00000 0 16511414.212 -1247095.720 19436939.941 10 0 59349 72900.00000 0 14545876.289 279471.388 20985764.464 10 0 59349 73800.00000 0 12578337.815 2060319.154 22128334.965 10 0 59349 74700.00000 0 10669928.155 4064841.683 22842607.142 10 0 59349 75600.00000 0 8876108.425 6251404.523 23114799.307 10 0 59349 76500.00000 0 7244493.032 8568852.669 22939652.140 10 0 59349 77400.00000 0 5813014.337 10958423.883 22320528.350 10 0 59349 78300.00000 0 4608505.156 13355989.737 21269350.570 10 0 59349 79200.00000 0 3645756.706 15694533.317 19806378.405 10 0 59349 80100.00000 0 2927090.321 17906762.644 17959828.168 10 0 59349 81000.00000 0 2442460.256 19927753.092 15765341.504 10 0 59349 81900.00000 0 2170083.145 21697510.392 13265311.634 10 0 59349 82800.00000 0 2077568.087 23163348.457 10508078.718 10 0 59349 83700.00000 0 2123500.409 24281983.375 7547008.293 10 0 59349 84600.00000 0 2259413.134 25021255.985 4439469.189 10 0 59349 85500.00000 0 2432063.658 25361410.327 1245729.728 10 0 59350 0.00000 0 2585919.899 25295873.419 -1972207.083 10 0 59350 900.00000 0 2665750.520 24831502.014 -5151807.425 10 0 59350 1800.00000 0 2619210.023 23988285.410 -8231224.990 10 0 59350 2700.00000 0 2399306.798 22798513.971 -11150510.862 10 0 59350 3600.00000 0 1966649.842 21305448.644 -13852789.675 10 0 59350 4500.00000 0 1291376.074 19561545.542 -16285378.387 10 0 59350 5400.00000 0 354675.166 17626310.186 -18400824.764 10 0 59350 6300.00000 0 -850154.995 15563871.314 -20157844.294 10 0 59350 7200.00000 0 -2317168.883 13440376.417 -21522136.175 10 0 59350 8100.00000 0 -4027774.793 11321318.795 -22467061.706 10 0 59350 9000.00000 0 -5951278.948 9268908.760 -22974171.209 10 0 59350 9900.00000 0 -8045950.736 7339599.843 -23033568.711 10 0 59350 10800.00000 0 -10260565.434 5581874.040 -22644107.061 10 0 59350 11700.00000 0 -12536360.318 4034378.991 -21813409.580 10 0 59350 12600.00000 0 -14809322.359 2724494.999 -20557717.885 10 0 59350 13500.00000 0 -17012711.591 1667391.241 -18901569.094 10 0 59350 14400.00000 0 -19079714.173 865609.661 -16877309.063 10 0 59350 15300.00000 0 -20946113.563 309192.498 -14524451.662 10 0 59350 16200.00000 0 -22552867.501 -23653.794 -11888897.274 10 0 59350 17100.00000 0 -23848482.586 -165388.359 -9022026.487 10 0 59350 18000.00000 0 -24791086.823 -157511.017 -5979687.640 10 0 59350 18900.00000 0 -25350113.564 -48553.431 -2821098.915 10 0 59350 19800.00000 0 -25507526.879 108226.708 392312.678 10 0 59350 20700.00000 0 -25258537.951 257349.282 3598111.825 10 0 59350 21600.00000 0 -24611783.789 343705.895 6734070.869 10 0 59350 22500.00000 0 -23588962.259 315133.978 9739377.122 10 0 59350 23400.00000 0 -22223940.298 124861.655 12555807.854 10 0 59350 24300.00000 0 -20561374.075 -266279.892 15128850.481 10 0 59350 25200.00000 0 -18654899.937 -887969.551 17408746.902 10 0 59350 26100.00000 0 -16564972.479 -1758913.863 19351442.771 10 0 59350 27000.00000 0 -14356440.123 -2885830.835 20919424.682 10 0 59350 27900.00000 0 -12095958.810 -4262942.320 22082430.664 10 0 59350 28800.00000 0 -9849350.605 -5871996.081 22818021.711 10 0 59350 29700.00000 0 -7679015.632 -7682817.011 23112004.824 10 0 59350 30600.00000 0 -5641503.127 -9654365.324 22958700.518 10 0 59350 31500.00000 0 -3785340.728 -11736258.824 22361050.376 10 0 59350 32400.00000 0 -2149210.269 -13870697.583 21330562.858 10 0 59350 33300.00000 0 -760544.244 -15994712.806 19887098.147 10 0 59350 34200.00000 0 365399.941 -18042648.317 18058495.452 10 0 59350 35100.00000 0 1225950.304 -19948773.236 15880048.799 10 0 59350 36000.00000 0 1830898.569 -21649918.733 13393839.979 10 0 59350 36900.00000 0 2201851.494 -23088029.997 10647939.968 10 0 59350 37800.00000 0 2371082.208 -24212527.597 7695492.678 10 0 59350 38700.00000 0 2379929.332 -24982379.566 4593697.345 10 0 59350 39600.00000 0 2276810.737 -25367796.870 1402708.201 10 0 59350 40500.00000 0 2114935.357 -25351480.223 -1815527.958 10 0 59350 41400.00000 0 1949809.551 -24929364.448 -4998474.078 10 0 59350 42300.00000 0 1836643.732 -24110827.487 -8084221.430 10 0 59350 43200.00000 0 1827769.706 -22918353.617 -11012700.301 10 0 59350 44100.00000 0 1970179.211 -21386663.412 -13726858.416 10 0 59350 45000.00000 0 2303289.368 -19561345.789 -16173783.069 10 0 59350 45900.00000 0 2857031.468 -17497048.624 -18305744.029 10 0 59350 46800.00000 0 3650345.934 -15255303.398 -20081135.830 10 0 59350 47700.00000 0 4690149.113 -12902074.995 -21465300.023 10 0 59350 48600.00000 0 5970817.469 -10505139.558 -22431210.581 10 0 59350 49500.00000 0 7474212.748 -8131400.559 -22960008.429 10 0 59350 50400.00000 0 9170248.470 -5844255.989 -23041374.211 10 0 59350 51300.00000 0 11017975.054 -3701127.186 -22673731.772 10 0 59350 52200.00000 0 12967138.717 -1751252.845 -21864278.303 10 0 59350 53100.00000 0 14960148.932 -33840.483 -20628840.596 10 0 59350 54000.00000 0 16934371.882 1423347.844 -18991560.473 10 0 59350 54900.00000 0 18824653.368 2604917.292 -16984415.811 10 0 59350 55800.00000 0 20565964.775 3508232.149 -14646587.093 10 0 59350 56700.00000 0 22096060.527 4143263.345 -12023682.438 10 0 59350 57600.00000 0 23358035.010 4531900.072 -9166837.013 10 0 59350 58500.00000 0 24302671.229 4706756.840 -6131705.334 10 0 59350 59400.00000 0 24890482.558 4709528.657 -2977367.087 10 0 59350 60300.00000 0 25093362.077 4588966.079 234831.305 10 0 59350 61200.00000 0 24895770.821 4398557.679 3442475.771 10 0 59350 62100.00000 0 24295416.020 4194019.610 6583300.323 10 0 59350 63000.00000 0 23303391.978 4030699.577 9596395.332 10 0 59350 63900.00000 0 21943778.989 3961005.646 12423384.614 10 0 59350 64800.00000 0 20252718.338 4031968.698 15009548.829 10 0 59350 65700.00000 0 18277003.069 4283041.187 17304874.031 10 0 59350 66600.00000 0 16072244.181 4744224.433 19265006.023 10 0 59350 67500.00000 0 13700688.941 5434602.597 20852093.456 10 0 59350 68400.00000 0 11228781.905 6361344.310 22035504.830 10 0 59350 69300.00000 0 8724569.306 7519213.383 22792407.103 10 0 59350 70200.00000 0 6255053.367 8890609.024 23108196.187 10 0 59350 71100.00000 0 3883604.605 10446134.262 22976772.178 10 0 59350 72000.00000 0 1667537.677 12145669.695 22400654.795 10 0 59350 72900.00000 0 -344050.637 13939909.066 21390937.107 10 0 59350 73800.00000 0 -2112093.514 15772294.348 19967078.183 10 0 59350 74700.00000 0 -3608942.383 17581271.479 18156538.002 10 0 59350 75600.00000 0 -4819275.016 19302774.611 15994260.495 10 0 59350 76500.00000 0 -5740486.275 20872836.932 13522013.253 10 0 59350 77400.00000 0 -6382545.548 22230220.361 10787595.092 10 0 59350 78300.00000 0 -6767326.795 23318955.032 7843925.208 10 0 59350 79200.00000 0 -6927438.993 24090682.552 4748030.080 10 0 59350 80100.00000 0 -6904605.695 24506704.432 1559946.703 10 0 59350 81000.00000 0 -6747661.520 24539648.810 -1658437.350 10 0 59350 81900.00000 0 -6510249.907 24174684.069 -4844584.876 10 0 59350 82800.00000 0 -6248319.409 23410226.564 -7936527.426 10 0 59350 83700.00000 0 -6017524.878 22258110.828 -10874076.978 10 0 59350 84600.00000 0 -5870644.357 20743213.180 -13600006.544 10 0 59350 85500.00000 0 -5855122.223 18902542.885 -16061175.606 10 0 59351 0.00000 0 -6010844.047 16783837.690 -18209577.394 10 0 59351 900.00000 0 -6368239.486 14443721.395 -20003286.711 10 0 59351 1800.00000 0 -6946793.954 11945500.796 -21407288.274 10 0 59351 2700.00000 0 -7754035.938 9356693.342 -22394169.239 10 0 59351 3600.00000 0 -8785042.050 6746389.518 -22944661.375 10 0 59351 4500.00000 0 -10022483.619 4182560.509 -23048021.871 10 0 59351 5400.00000 0 -11437213.272 1729423.965 -22702245.180 10 0 59351 6300.00000 0 -12989367.715 -555021.838 -21914101.617 10 0 59351 7200.00000 0 -14629940.587 -2621192.317 -20699002.046 10 0 59351 8100.00000 0 -16302759.235 -4429748.012 -19080691.507 10 0 59351 9000.00000 0 -17946782.011 -5952987.311 -17090778.080 10 0 59351 9900.00000 0 -19498618.897 -7175743.228 -14768106.738 10 0 59351 10800.00000 0 -20895168.875 -8095748.355 -12157990.988 10 0 59351 11700.00000 0 -22076262.433 -8723454.660 -9311318.062 10 0 59351 12600.00000 0 -22987197.487 -9081317.965 -6283546.050 10 0 59351 13500.00000 0 -23581061.689 -9202579.701 -3133613.476 10 0 59351 14400.00000 0 -23820743.337 -9129599.762 77216.504 10 0 59351 15300.00000 0 -23680546.535 -8911813.044 3286553.755 10 0 59351 16200.00000 0 -23147343.268 -8603397.965 6432096.631 10 0 59351 17100.00000 0 -22221214.777 -8260757.016 9452841.190 10 0 59351 18000.00000 0 -20915556.319 -7939916.721 12290260.360 10 0 59351 18900.00000 0 -19256641.935 -7693957.340 14889430.464 10 0 59351 19800.00000 0 -17282668.335 -7570580.668 17200083.915 10 0 59351 20700.00000 0 -15042318.525 -7609918.008 19177568.602 10 0 59351 21600.00000 0 -12592905.362 -7842669.839 20783696.791 10 0 59351 22500.00000 0 -9998172.097 -8288654.522 21987468.626 10 0 59351 23400.00000 0 -7325840.685 -8955826.184 22765657.763 10 0 59351 24300.00000 0 -4645008.452 -9839802.431 23103249.320 10 0 59351 25200.00000 0 -2023499.422 -10923921.540 22993722.864 10 0 59351 26100.00000 0 474721.702 -12179827.070 22439175.765 10 0 59351 27000.00000 0 2791967.784 -13568556.328 21450284.864 10 0 59351 27900.00000 0 4878981.476 -15042088.519 20046106.992 10 0 59351 28800.00000 0 6696733.773 -16545289.507 18253721.490 10 0 59351 29700.00000 0 8217795.659 -18018173.702 16107720.523 10 0 59351 30600.00000 0 9427226.764 -19398390.285 13649555.543 10 0 59351 31500.00000 0 10322944.466 -20623831.160 10926751.023 10 0 59351 32400.00000 0 10915558.184 -21635252.535 7991999.015 10 0 59351 33300.00000 0 11227675.621 -22378800.708 4902150.631 10 0 59351 34200.00000 0 11292709.620 -22808335.936 1717122.875 10 0 59351 35100.00000 0 11153235.407 -22887456.030 -1501258.743 10 0 59351 36000.00000 0 10858967.060 -22591133.289 -4690459.713 10 0 59351 36900.00000 0 10464438.463 -21906894.158 -7788454.657 10 0 59351 37800.00000 0 10026486.904 -20835489.971 -10734939.954 10 0 59351 38700.00000 0 9601646.297 -19391028.392 -13472516.464 10 0 59351 39600.00000 0 9243561.184 -17600558.024 -15947818.251 10 0 59351 40500.00000 0 9000532.189 -15503121.818 -18112564.252 10 0 59351 41400.00000 0 8913298.189 -13148317.517 -19924511.305 10 0 59351 42300.00000 0 9013150.572 -10594424.549 -21348288.906 10 0 59351 43200.00000 0 9320460.814 -7906175.154 -22356098.627 10 0 59351 44100.00000 0 9843685.034 -5152262.733 -22928263.865 10 0 59351 45000.00000 0 10578888.763 -2402691.704 -23053618.735 10 0 59351 45900.00000 0 11509812.911 273920.294 -22729728.266 10 0 59351 46800.00000 0 12608478.766 2812974.980 -21962935.492 10 0 59351 47700.00000 0 13836306.790 5156350.727 -20768234.580 10 0 59351 48600.00000 0 15145701.974 7254582.094 -19168972.690 10 0 59351 49500.00000 0 16482038.634 9068671.064 -17196386.681 10 0 59351 50400.00000 0 17785960.362 10571455.025 -14888984.260 10 0 59351 51300.00000 0 18995897.482 11748475.615 -12291782.234 10 0 59351 52200.00000 0 20050695.149 12598313.761 -9455417.478 10 0 59351 53100.00000 0 20892240.499 13132378.898 -6435148.918 10 0 59351 54000.00000 0 21467977.573 13374163.662 -3289770.911 10 0 59351 54900.00000 0 21733203.623 13357997.864 -80460.149 10 0 59351 55800.00000 0 21653049.995 13127356.672 3130420.448 10 0 59351 56700.00000 0 21204064.383 12732796.566 6280536.857 10 0 59351 57600.00000 0 20375328.396 12229607.982 9308793.986 10 0 59351 58500.00000 0 19169064.159 11675285.019 12156516.827 10 0 59351 59400.00000 0 17600705.300 11126919.759 14768580.062 10 0 59351 60300.00000 0 15698430.050 10638631.259 17094464.846 10 0 59351 61200.00000 0 13502176.576 10259137.208 19089223.207 10 0 59351 62100.00000 0 11062181.905 10029569.710 20714332.731 10 0 59351 63000.00000 0 8437105.035 9981626.011 21938426.540 10 0 59351 63900.00000 0 5691811.771 10136130.743 22737885.929 10 0 59351 64800.00000 0 2894912.039 10502069.035 23097285.740 10 0 59351 65700.00000 0 116150.256 11076130.340 23009685.068 10 0 59351 66600.00000 0 -2576244.896 11842781.859 22476758.492 10 0 59351 67500.00000 0 -5118143.613 12774868.762 21508765.681 10 0 59351 68400.00000 0 -7451926.056 13834716.884 20124359.762 10 0 59351 69300.00000 0 -9528623.252 14975692.984 18350237.486 10 0 59351 70200.00000 0 -11309700.535 16144158.751 16220636.866 10 0 59351 71100.00000 0 -12768410.629 17281738.389 13776690.498 10 0 59351 72000.00000 0 -13890660.609 18327806.214 11065645.540 10 0 59351 72900.00000 0 -14675356.901 19222091.152 8139963.793 10 0 59351 73800.00000 0 -15134213.744 19907289.520 5056317.827 10 0 59351 74700.00000 0 -15291032.705 20331576.404 1874501.501 10 0 59351 75600.00000 0 -15180483.036 20450909.513 -1343724.812 10 0 59351 76500.00000 0 -14846433.657 20231027.441 -4535832.259 10 0 59351 77400.00000 0 -14339906.731 19649056.522 -7639741.338 10 0 59351 78300.00000 0 -13716739.147 18694656.613 -10595035.416 10 0 59351 79200.00000 0 -13035050.924 17370655.287 -13344145.539 10 0 59351 80100.00000 0 -12352628.184 15693141.476 -15833482.385 10 0 59351 81000.00000 0 -11724332.236 13691012.505 -18014492.246 10 0 59351 81900.00000 0 -11199645.478 11404991.612 -19844615.399 10 0 59351 82800.00000 0 -10820459.151 8886155.744 -21288127.084 10 0 59351 83700.00000 0 -10619197.725 6194034.248 -22316843.908 10 0 59351 84600.00000 0 -10617360.372 3394357.315 -22910681.205 10 0 59351 85500.00000 0 -10824542.108 556548.147 -23058049.988 99